Location: Kelowna
(49.8880°N, 119.4960°W)
Time: 15:33:09
(UTC-07:00)

AO-27 - Pass Details

Date: 11 August 2024
Orbit: 783 x 796 km, 98.8° (Epoch: 14 September)

Event Time Altitude Azimuth Distance (km) Brightness Sun altitude
Exits shadow 22:14:41 - 194° (SSW) 2,838 10.2 -15.5°
Reaches altitude 10° 22:16:02 10° 200° (SSW) 2,356 9.9 -15.6°
Maximum altitude 22:20:43 33° 264° (W) 1,310 9.1 -16.1°
Drops below altitude 10° 22:25:26 10° 329° (NNW) 2,377 11.5 -16.6°
Sets 22:28:01 0° 338° (NNW) 3,313 12.3 -16.9°
